Theta_e
332 333 332 332 332 328 323 318 313 312 310 309 308 307 306 307 308 308 310 310 310 309 309 309 309 310 309 308 307 307 309 311 311 312 312 312 312 312 315 318 318 318 321
327 321 315 313 311 310 309 308 307 307 306 306 307 309 310 311 311 312 310 306 305 306 307 308 307 306 306 306 306 305 304 304 304 304 305 305 306 307 309 311 314 316 317
316 315 313 311 310 309 307 306 305 305 306 309 311 311 311 311 311 308 305 306 306 306 306 306 307 307 307 307 307 306 307 307 307 306 306 306 306 305 306 309 312 315 316
313 311 310 308 307 306 305 306 307 308 310 311 310 310 310 309 308 305 305 305 305 306 306 307 307 307 307 307 307 308 308 308 308 308 308 308 308 309 307 305 307 310 312
313 310 308 307 307 308 310 310 310 310 309 310 310 310 309 307 305 305 305 305 306 308 308 309 309 308 308 308 308 308 308 308 308 308 308 307 308 308 307 306 304 306 309
310 307 308 309 311 312 311 310 309 308 308 308 308 307 306 307 306 305 305 307 309 311 311 310 309 309 309 310 310 311 311 311 310 308 306 306 306 306 306 306 304 304 305
308 308 310 311 311 311 310 309 307 307 307 308 307 307 306 306 306 309 311 312 312 311 310 310 309 310 311 311 312 311 311 310 309 308 307 307 306 305 305 305 305 305 305
308 309 311 311 311 310 309 307 307 307 307 307 307 306 306 308 311 311 313 313 313 313 312 312 312 312 312 311 309 310 310 309 310 310 308 307 306 305 304 304 305 305 304
309 310 310 310 309 308 306 305 306 306 306 307 308 308 308 308 309 312 313 313 314 314 314 311 312 312 311 309 309 309 309 308 308 308 307 307 307 306 305 302 304 304 303
310 310 310 308 307 306 305 305 305 307 308 308 308 308 308 308 310 311 313 314 315 315 314 313 312 312 310 309 309 308 310 309 308 309 308 306 305 305 303 303 304 303 303
310 310 308 306 307 305 305 305 306 307 308 308 308 308 309 311 310 313 315 315 314 314 313 312 312 312 312 311 310 310 311 311 311 309 308 307 305 304 303 302 303 303 304
310 309 308 306 306 306 306 306 306 306 307 307 308 309 310 311 310 313 315 314 313 312 311 311 313 314 313 312 311 311 310 310 311 310 309 308 306 305 305 304 305 305 306
309 307 306 305 306 306 306 306 306 305 307 309 310 311 311 311 311 311 312 311 311 311 311 310 311 312 312 314 313 313 312 312 311 310 309 309 308 306 306 306 306 306 306
307 306 306 306 305 305 306 306 305 304 306 309 310 311 311 312 312 312 312 312 311 311 310 310 310 310 310 311 313 312 311 313 312 312 311 310 310 309 308 307 307 306 307
307 306 306 305 304 305 306 306 306 305 305 307 308 310 311 312 312 312 312 311 310 310 310 310 309 309 308 309 310 312 312 312 314 313 314 313 311 309 309 308 307 307 308
307 306 305 304 304 306 306 305 305 305 305 306 305 308 309 309 310 311 311 310 308 308 309 308 304 303 302 304 306 308 310 311 312 314 313 314 313 311 309 309 309 309 310
307 305 305 303 304 304 305 305 304 304 304 305 308 307 308 309 309 310 310 308 308 307 305 302 299 297 297 299 303 305 307 310 312 313 313 313 313 314 314 314 313 311 310
304 303 304 304 303 303 304 303 303 303 304 305 306 308 309 310 309 307 307 307 308 305 301 298 295 293 294 296 299 304 307 309 311 311 312 313 313 314 314 313 312 312 313
303 304 304 304 303 303 303 303 303 304 304 305 306 307 308 307 305 304 303 304 301 299 297 294 292 292 292 293 296 300 304 306 307 309 310 311 312 313 314 314 313 312 313
302 303 303 303 303 302 302 302 302 305 304 305 306 305 304 305 303 301 299 298 297 296 292 291 291 291 291 292 293 295 298 302 304 306 308 310 310 310 312 314 314 314 313
301 301 302 301 301 300 300 302 304 304 303 302 303 302 300 299 298 297 297 296 296 295 292 290 290 290 291 291 292 293 295 297 299 301 303 307 308 308 310 311 314 314 313
300 301 300 300 299 299 299 302 303 303 301 299 299 298 298 297 297 296 296 295 295 294 292 289 290 290 290 290 291 292 293 294 296 297 299 301 303 305 307 310 312 313 313
300 300 299 298 298 299 298 302 302 301 299 298 298 297 296 296 295 295 295 294 294 293 292 289 289 289 289 289 290 290 291 293 294 296 298 298 298 300 302 304 306 309 311
299 299 298 298 297 299 300 299 298 297 297 296 295 295 294 294 294 294 293 293 293 292 291 289 288 288 289 289 289 290 290 291 292 295 297 297 296 297 298 301 301 302 306
299 297 298 299 299 297 295 295 295 294 294 294 294 294 293 293 292 293 292 291 291 291 289 289 287 288 288 289 289 289 290 290 291 293 296 297 296 295 296 298 297 297 298
297 297 298 298 297 296 296 296 295 294 293 293 293 293 292 292 291 291 291 291 290 289 288 288 288 288 288 288 288 289 289 290 290 291 294 296 295 294 294 296 296 296 295
Wind_Speed
10 8 6 5 5 5 2 2 5 8 10 12 14 15 15 16 18 19 19 20 21 21 20 20 21 23 26 27 27 26 25 26 34 43 40 41 40 37 32 28 27 24 19
12 12 11 8 5 3 5 6 8 10 10 10 9 9 12 15 17 19 21 19 17 15 17 19 22 22 22 24 25 27 25 24 28 38 37 37 35 31 31 29 29 24 22
13 11 9 8 6 6 7 8 8 9 9 10 10 10 12 14 15 18 17 18 17 16 16 19 21 24 23 24 27 30 30 29 29 32 35 33 31 28 26 25 24 15 9
11 10 9 10 9 9 8 9 9 10 10 9 10 9 12 14 16 15 17 18 18 16 18 19 20 22 23 26 29 30 32 35 38 40 40 41 37 32 31 29 30 29 28
10 10 11 11 12 11 11 12 11 11 9 7 7 7 11 13 15 18 19 22 21 21 20 21 23 20 21 22 26 31 35 37 40 40 43 44 41 38 33 31 27 26 26
7 8 6 7 9 8 10 11 8 11 12 11 14 14 13 14 18 21 21 22 18 17 19 22 21 21 25 29 31 32 33 33 33 34 37 39 40 38 34 27 25 24 27
9 10 7 7 5 6 9 10 8 10 9 9 11 12 14 15 19 19 20 19 16 17 18 19 18 23 28 31 30 31 32 31 28 30 31 31 31 30 32 28 24 19 25
6 6 5 2 4 7 8 8 7 8 8 8 9 11 13 18 20 20 19 19 20 18 17 20 23 25 25 26 28 30 31 33 31 28 25 25 23 21 22 23 24 26 23
7 5 3 4 6 8 8 7 7 12 13 17 18 17 16 18 20 20 20 19 18 18 20 20 19 22 22 24 27 31 32 35 34 32 27 24 21 17 13 17 17 14 15
4 3 5 3 9 11 7 10 13 15 14 15 15 12 13 15 18 19 19 20 19 17 19 21 23 22 23 23 25 29 31 35 40 39 36 29 21 17 10 5 4 8 13
2 3 6 5 8 10 10 15 14 15 12 11 8 3 7 14 17 18 18 19 19 21 24 26 26 24 25 28 27 28 30 31 29 35 39 37 29 21 14 2 2 6 11
1 3 6 5 5 10 11 13 10 7 5 6 3 1 5 11 16 17 15 16 20 22 24 23 23 23 23 27 28 28 27 30 34 29 31 36 29 24 20 14 10 12 13
3 4 7 7 5 7 7 8 6 11 6 7 6 5 8 11 14 16 16 16 17 20 22 21 21 21 24 26 29 33 38 37 35 38 29 27 28 20 15 14 14 15 14
6 6 6 6 5 7 6 4 8 10 8 7 7 7 10 10 12 14 16 15 15 16 18 19 21 22 23 25 28 32 36 36 38 36 34 27 27 23 24 19 16 16 13
8 4 2 3 4 9 6 7 10 11 9 7 6 7 8 10 13 14 16 17 18 17 17 23 27 28 28 28 27 28 32 35 36 41 41 33 26 23 21 19 16 11 17
7 3 1 5 9 10 5 4 6 9 8 6 8 7 9 11 11 13 15 16 17 18 21 25 30 30 31 32 30 28 28 31 33 36 33 41 39 20 19 18 18 16 16
6 4 4 7 7 6 3 2 4 7 9 6 7 9 8 7 11 12 13 13 15 18 23 27 30 30 30 30 29 27 27 25 27 30 35 39 39 34 26 20 18 19 18
5 6 8 7 8 4 1 2 5 8 5 6 8 7 6 6 10 13 14 11 15 19 24 26 28 28 28 28 28 27 26 23 24 28 32 35 34 35 32 23 18 17 17
5 8 8 7 7 2 4 6 7 3 2 4 6 6 7 7 11 14 16 18 21 24 25 24 25 26 27 26 26 27 27 25 25 25 28 31 33 33 31 30 23 21 14
5 9 9 6 2 5 8 9 3 1 5 7 8 12 13 11 13 18 19 22 22 22 23 23 25 26 27 27 26 27 28 27 26 26 23 25 28 32 32 27 29 27 20
2 7 7 4 5 8 6 3 2 5 10 12 14 17 17 20 20 19 17 19 19 20 22 24 24 27 28 29 28 28 29 28 26 27 26 21 24 27 25 25 27 28 28
6 5 5 3 3 4 1 5 4 5 11 15 16 17 17 16 16 15 14 16 17 17 20 22 23 25 28 29 30 29 29 29 27 26 28 26 25 22 21 21 22 21 24
8 7 6 3 2 2 2 4 4 7 14 16 16 14 14 12 13 15 14 13 15 15 18 20 22 23 25 27 28 29 29 29 26 25 25 28 27 24 22 21 19 19 20
11 9 7 7 5 5 7 11 15 16 16 15 14 12 12 11 11 13 13 11 12 14 15 18 21 23 24 25 26 27 27 26 23 21 20 26 27 25 25 23 23 22 17
8 9 5 8 11 16 17 17 17 15 14 13 11 11 10 10 9 9 10 9 9 11 14 18 21 22 23 24 25 26 26 26 24 20 20 21 26 30 26 23 26 26 23
9 7 8 13 15 16 15 15 15 13 11 7 6 6 6 7 7 6 5 3 7 11 13 17 18 20 21 22 24 24 24 24 24 21 18 19 24 30 31 24 26 31 30
Wind_Direction
148 153 157 151 199 189 180 321 330 325 326 326 325 324 317 315 316 326 328 326 324 324 321 322 322 322 322 320 322 319 310 306 304 299 303 304 304 301 292 297 299 302 302
128 127 119 109 87 43 11 349 332 329 327 327 334 334 324 332 335 334 339 343 343 343 346 343 343 346 348 350 356 355 348 335 321 312 315 315 313 312 303 296 301 299 291
114 97 81 60 29 3 347 339 335 330 339 349 355 345 336 342 344 348 0 9 12 10 2 356 353 347 351 351 349 348 347 344 339 335 333 335 334 327 312 297 294 298 341
83 65 42 28 13 357 354 356 356 359 7 10 18 358 349 351 348 6 8 8 3 359 1 356 355 355 352 346 346 344 337 335 332 330 329 330 329 336 335 323 306 290 295
63 42 29 15 13 14 8 3 360 7 21 26 7 345 340 354 12 7 4 360 359 7 4 2 6 10 0 345 335 332 330 325 322 318 316 317 320 321 323 331 328 321 306
49 52 50 17 28 21 1 356 13 29 47 31 15 15 14 19 9 11 7 0 1 358 1 4 359 358 348 346 344 339 331 329 327 315 306 303 306 307 310 312 324 319 318
47 61 57 45 29 346 342 350 22 39 54 36 14 12 16 8 10 16 9 5 7 7 358 351 359 360 352 346 347 346 344 340 330 326 318 313 309 303 298 302 305 308 307
55 66 81 24 329 329 338 18 69 48 37 19 31 21 18 21 16 9 12 18 25 25 30 24 12 360 356 350 358 360 7 7 1 347 329 318 313 305 290 285 290 293 309
62 67 59 344 342 355 1 55 49 36 60 67 56 38 22 1 2 5 17 29 37 39 32 21 11 8 8 7 6 14 18 16 15 10 1 345 329 313 289 297 281 293 321
63 33 19 27 13 7 44 60 68 69 59 59 46 38 359 358 6 5 23 28 36 37 33 32 25 20 13 11 11 10 10 15 14 14 13 11 1 350 340 333 275 315 320
126 351 43 63 17 24 61 64 77 56 56 67 78 7 4 20 17 16 38 41 42 33 36 36 36 28 19 18 12 8 8 6 10 17 16 15 21 18 10 14 269 329 329
179 21 36 77 48 53 40 57 44 33 19 6 327 213 20 31 34 42 48 41 44 42 40 35 32 30 26 22 18 14 17 13 19 14 15 17 20 31 37 37 12 337 323
80 70 45 71 86 96 56 47 19 5 13 32 75 72 61 51 57 52 57 43 39 42 40 35 31 30 28 25 26 24 25 21 20 22 19 9 13 5 359 2 354 348 348
90 85 56 26 52 125 102 27 12 11 21 18 58 61 48 49 49 46 34 34 33 36 33 27 26 24 26 26 25 27 26 26 25 22 25 22 17 4 15 16 13 20 17
87 65 20 350 79 100 63 358 349 357 7 9 20 40 46 43 35 21 14 16 24 23 13 19 18 15 14 13 24 23 29 26 29 25 24 24 20 21 23 19 15 33 15
156 211 74 56 104 97 42 355 338 345 352 14 25 32 34 33 23 13 8 20 21 25 20 20 17 15 15 11 11 19 23 25 25 28 32 22 21 16 27 26 23 16 7
184 193 71 94 117 79 76 321 309 331 341 352 39 28 34 34 21 18 16 21 20 19 22 19 17 15 14 14 15 19 22 25 22 30 36 28 25 20 21 9 13 28 36
168 131 114 80 47 109 159 265 295 313 316 340 18 20 27 23 17 22 28 24 19 24 24 19 16 15 16 18 20 22 25 27 29 27 34 39 32 31 23 29 30 26 34
188 130 116 88 66 216 268 298 318 324 307 54 44 34 36 32 50 44 37 29 27 26 21 19 20 21 22 24 25 30 29 28 25 26 30 36 36 33 28 25 25 25 29
155 142 138 129 208 256 287 295 320 37 89 92 79 72 61 61 55 48 40 29 24 23 26 27 26 27 28 28 29 32 31 28 26 26 33 29 36 32 31 33 28 28 28
120 141 159 189 237 258 275 120 139 106 94 84 81 74 69 64 56 49 40 27 22 25 28 29 29 29 29 30 31 33 31 28 27 25 30 31 30 25 32 31 33 32 24
163 152 190 179 156 280 62 149 151 123 106 90 80 74 69 66 66 52 42 31 21 21 30 30 31 30 28 27 27 28 27 25 24 27 33 30 27 19 20 26 34 35 29
164 187 195 168 154 137 121 150 134 115 109 93 86 77 69 76 78 63 48 31 23 12 31 29 30 30 30 30 28 26 22 20 22 28 34 31 27 28 24 25 17 18 23
183 191 196 161 164 120 119 112 111 112 111 103 93 89 77 81 87 77 61 33 14 10 18 32 29 28 28 29 29 29 25 20 18 30 38 40 30 28 31 32 23 16 11
205 203 177 149 135 125 116 110 104 103 103 106 114 106 99 91 90 96 74 46 9 18 8 26 28 27 27 28 28 28 27 25 23 30 42 37 36 35 34 35 26 22 22
183 177 151 144 147 136 131 126 109 115 117 122 133 135 128 124 106 101 101 27 14 15 19 28 29 29 30 31 30 28 27 26 26 32 41 36 37 36 33 35 34 25 26